Guadalupe Pass, TX

9:39 AM MST on December 10, 2019 (GMT -0700)
Guadalupe Pass

Weather History for KGDP - November, 2019

Change the Weather History Date:

Saturday, November 16, 2019

  Actual Average Record
Temperature  
Mean Temperature 48 °F -  
Max Temperature 59 °F 57 °F 75 °F (2017)
Min Temperature 37 °F 39 °F 17 °F (2014)
Degree Days  
Heating Degree Days 17    
Moisture  
Dew Point 30 °F    
Average Humidity 50    
Maximum Humidity 65    
Minimum Humidity 33    
Precipitation  
Precipitation 0.00 in - - ()
Sea Level Pressure  
Sea Level Pressure 30.05 in    
Wind  
Wind Speed 18 mph ()    
Max Wind Speed 28 mph    
Max Gust Speed 33 mph    
Visibility 10.0 miles    
Events      
Averages and records for this station are not official NWS values.
T = Trace of Precipitation, MM = Missing Value Source: Averaged Metar Reports

Daily Weather History Graph

Daily Weather History Graph

Search for Another Location

Airport or City:

Astronomy

Nov. 16, 2019 Rise Set
Actual Time 6:28 AM MST 4:59 PM MST
Civil Twilight 6:02 AM MST 5:25 PM MST
Nautical Twilight 5:32 AM MST 5:54 PM MST
Astronomical Twilight 5:03 AM MST 6:23 PM MST
Moon 8:40 PM MST (11/16) 10:18 AM MST (11/16)
Length of Visible Light 11h 22m
Length of Day
10h 30m
Waning Gibbous, 82% of the Moon is Illuminated
Nov 16
Waning Gibbous
Nov 19
Last Quarter
Nov 26
New
Dec 3
First Quarter
Dec 11
Full

Hourly Weather History & Observations

Time (MST) Temp. Windchill Dew Point Humidity Pressure Visibility Wind Dir Wind Speed Gust Speed Precip Events Conditions
12:51 AM 41.0 °F 31.6 °F 27.0 °F 57% 30.12 in 10.0 mi WSW 20.7 mph - N/A   Clear
1:51 AM 39.9 °F 30.0 °F 26.1 °F 58% 30.10 in 10.0 mi WSW 21.9 mph - N/A   Clear
2:51 AM 42.1 °F 33.1 °F 26.1 °F 53% 30.08 in 10.0 mi WSW 20.7 mph - N/A   Clear
3:51 AM 39.9 °F 30.5 °F 26.1 °F 58% 30.09 in 10.0 mi WSW 19.6 mph - N/A   Clear
4:51 AM 37.9 °F 28.2 °F 26.1 °F 62% 30.11 in 10.0 mi SW 18.4 mph - N/A   Clear
5:51 AM 37.9 °F 28.5 °F 27.0 °F 65% 30.12 in 10.0 mi SW 17.3 mph - N/A   Clear
6:51 AM 39.0 °F 30.6 °F 28.0 °F 65% 30.11 in 10.0 mi WSW 15.0 mph - N/A   Clear
7:51 AM 39.9 °F 31.8 °F 28.0 °F 63% 30.12 in 10.0 mi WSW 15.0 mph - N/A   Clear
8:51 AM 42.1 °F 34.5 °F 28.9 °F 60% 30.11 in 10.0 mi SW 15.0 mph - N/A   Clear
9:51 AM 44.1 °F 37.1 °F 28.9 °F 55% 30.10 in 10.0 mi SW 15.0 mph - N/A   Clear
10:51 AM 53.1 °F - 30.0 °F 41% 30.05 in 10.0 mi WSW 26.5 mph - N/A   Clear
11:51 AM 54.0 °F - 30.0 °F 40% 30.04 in 10.0 mi WSW 24.2 mph - N/A   Clear
12:51 PM 59.0 °F - 30.0 °F 33% 29.99 in 10.0 mi WSW 23.0 mph 33.4 mph N/A   Clear
1:51 PM 59.0 °F - 32.0 °F 36% 29.97 in 10.0 mi WSW 27.6 mph - N/A   Clear
2:51 PM 57.0 °F - 33.1 °F 40% 29.97 in 10.0 mi WSW 24.2 mph - N/A   Clear
3:51 PM 57.9 °F - 34.0 °F 41% 29.98 in 10.0 mi WSW 26.5 mph - N/A   Clear
4:51 PM 55.9 °F - 33.1 °F 42% 30.00 in 10.0 mi WSW 26.5 mph - N/A   Clear
5:51 PM 52.0 °F - 34.0 °F 50% 30.03 in 10.0 mi WSW 18.4 mph - N/A   Clear
6:51 PM 51.1 °F - 33.1 °F 50% 30.04 in 10.0 mi WSW 19.6 mph - N/A   Clear
7:51 PM 48.9 °F - 33.1 °F 54% 30.03 in 10.0 mi WSW 19.6 mph - N/A   Clear
8:51 PM 48.9 °F - 33.1 °F 54% 30.04 in 10.0 mi SW 16.1 mph - N/A   Clear
9:51 PM 48.9 °F - 30.9 °F 50% 30.03 in 10.0 mi SW 18.4 mph - N/A   Clear
10:51 PM 48.0 °F - 30.9 °F 52% 30.01 in 10.0 mi SW 13.8 mph - N/A   Clear
11:51 PM 55.0 °F - 26.1 °F 33% 29.99 in 10.0 mi SW 13.8 mph 21.9 mph N/A   Clear